[[{"header":{"parameterUnit":"m.s-1","parameterCategory":1,"la1":30.2991,"la2":30.254,"lo1":-89.0895,"lo2":-89.0444,"dy":0.0017,"dx":0.0017,"nx":28,"ny":28,"refTime":"2023-03-17T21:00:00:Z","depth":0,"parameterNumber":2,"parameterNumberName":"U-component_of_WINDS"},"data":[0,0,0,0,0,0,0,0,0,0,0,0,0,0,0,0,0,0,0,0,0,0,0,0,0,0,0,0,0,0,0,0,0,0,0,0,0,0,0,0,0,0,0,0,0,0,0,0,0,0,0,0,0,0,0,0,0,0,-0.9682,-0.9683,0,-0.9757,-0.9758,-0.9759,-0.9722,-0.972,-0.9718,-0.9716,-0.9796,-0.98,-0.9804,0,0,0,0,0,0,0,0,0,0,0,0,0,-0.9509,-0.9512,-0.9682,-0.9683,-0.9684,-0.9757,-0.9758,-0.9759,-0.9722,-0.972,-0.9718,-0.9715,-0.9795,-0.9799,-0.9804,0,0,0,0,0,0,0,0,0,0,0,0,0,-0.9584,-0.9513,-0.9682,-0.9674,-0.9674,-0.9757,-0.9758,-0.976,-0.9723,-0.972,-0.9717,-0.9714,-0.9793,-0.9799,-0.9805,-0.99,0,0,-0.9823,-0.9825,0,0,0,0,0,0,0,0,-0.958,-0.959,-0.9675,-0.9675,-0.9675,-0.9727,-0.9726,-0.9807,-0.9724,-0.9705,-0.9716,-0.9713,-0.9776,-0.9783,-0.9803,-0.9904,-0.9907,-0.9823,-0.9827,-0.9829,-0.9831,0,0,0,0,0,0,0,-0.9575,-0.9587,-0.9712,-0.9676,-0.9676,-0.9668,-0.9675,-0.9741,-0.9756,-0.9706,-0.9703,-0.9713,-0.9775,-0.9798,-0.9805,-0.9908,-0.9823,-0.9828,-0.9832,-0.9834,-1.009,-1.0094,0,0,0,0,0,0,-0.9569,-0.9583,-0.971,-0.9714,-0.9619,-0.9673,-0.9682,-0.9714,-0.9755,-0.9758,-0.9715,-0.9711,-0.9789,-0.9798,-0.9808,-0.9923,-0.9829,-0.9835,-0.9838,-1.0087,-1.0091,-1.0095,0,0,0,0,0,0,-0.9566,-0.9581,-0.9707,-0.9648,-0.9663,-0.9679,-0.9716,-0.9717,-0.9739,-0.9762,-0.9764,-0.9735,-0.9787,-0.9799,-0.9877,-0.9925,-0.9838,-0.9843,-1.0083,-1.0088,-1.0093,-1.0153,0,0,0,0,0,0,-0.9561,-0.958,-0.9616,-0.9649,-0.9666,-0.9775,-0.9718,-0.972,-0.9749,-0.9744,-0.9782,-0.9785,-0.9786,-0.9868,-0.9883,-0.9932,-0.9848,-1.0079,-1.0086,-1.0091,-1.0147,-1.0159,-1.017,0,0,0,0,0,-0.9555,-0.9631,-0.9618,-0.9634,-0.9712,-0.9777,-0.9788,-0.9786,-0.9753,-0.979,-0.9804,-0.9784,-0.9917,-0.9877,-0.9893,-0.9944,-1.0076,-1.0084,-1.0091,-1.0142,-1.0157,-1.017,0,0,0,0,0,0,-0.9605,-0.9635,-0.9621,-0.971,-0.9741,-0.9771,-0.9818,-0.9802,-0.9844,-0.9838,-0.9835,-0.9844,-0.9925,-0.9942,-0.9897,-1.0038,-0.9991,-1.0002,-1.0025,-1.0039,-1.0051,-1.0046,-0.9853,0,0,0,0,0,-0.9626,-0.9676,-0.9699,-0.9775,-0.9792,-0.9802,-0.983,-0.9826,-0.9859,-0.9872,-0.9892,-0.9926,-0.9975,-1.0007,-1.0054,-1.0148,-1.0156,-1.0191,-1.0202,-1.0212,-1.0222,-1.0274,-1.029,-1.0119,-1.0119,-1.0118,0,0,-0.967,-0.9693,-0.9725,-0.9786,-0.981,-0.9862,-0.9813,-0.9871,-0.991,-0.9881,-0.9956,-0.9972,-1.0009,-1.0095,-1.0134,-1.0112,-1.0271,-1.0221,-1.0228,-1.0234,-1.0283,-1.0299,-1.0313,-1.0124,-1.0123,-1.0122,0,0,-0.9779,-0.98,-0.9866,-0.989,-0.9926,-0.9932,-0.9948,-0.998,-0.9989,-1.0063,-1.0043,-1.0089,-1.0174,-1.0201,-1.0226,-1.0342,-1.0325,-1.0357,-1.0419,-1.0469,-1.0482,-1.0494,-1.0537,-1.0553,-1.0367,-1.0367,-1.0367,0,-0.983,-0.9908,-0.9902,-0.9961,-0.9989,-0.9963,-1.003,-1.0054,-1.0104,-1.0124,-1.0097,-1.0203,-1.0226,-1.0318,-1.0346,-1.0367,-1.0386,-1.0354,-1.0481,-1.0493,-1.0504,-1.0545,-1.0561,-1.0371,-1.037,-1.037,-1.037,0,-0.997,-1.0024,-1.0073,-1.012,-1.0153,-1.0216,-1.022,-1.0254,-1.0246,-1.0255,-1.0332,-1.0357,-1.0409,-1.043,-1.0424,-1.0522,-1.0507,-1.048,-1.0434,-1.0524,-1.0563,-1.0578,-1.0376,-1.0375,-1.0374,-1.0373,0,0,-1.0115,-1.0157,-1.0175,-1.0196,-1.0233,-1.0275,-1.0336,-1.0385,-1.0415,-1.0449,-1.0502,-1.0573,-1.0548,-1.0577,-1.0572,-1.0616,-1.0708,-1.0585,-1.0585,-1.0608,-1.0819,-1.084,-1.0859,-1.0696,-1.0699,-1.0701,-1.0817,0,-1.0228,-1.0335,-1.033,-1.0431,-1.0481,-1.0456,-1.0509,-1.0538,-1.0547,-1.0591,-1.0601,-1.0653,-1.0616,-1.0633,-1.0674,-1.0688,-1.0751,-1.0679,-1.0746,-1.0748,-1.074,-1.0879,-1.0902,-1.101,-1.0831,-1.0834,-1.0836,0,-1.0374,-1.0412,-1.0518,-1.0546,-1.0567,-1.0615,-1.066,-1.0702,-1.0733,-1.0737,-1.0767,-1.0756,-1.0818,-1.0768,-1.0854,-1.0806,-1.0832,-1.0843,-1.0847,-1.0855,-1.08,-1.0893,-1.1044,-1.1061,-1.0859,-1.0857,-1.0856,0,-1.0472,-1.0549,-1.0622,-1.0641,-1.0676,-1.071,-1.0726,-1.0755,-1.0784,-1.0823,-1.0842,-1.0887,-1.0913,-1.0948,-1.095,-1.0912,-1.1038,-1.0987,-1.1044,-1.1044,-1.1074,-1.1072,-1.1234,-1.1087,-1.1086,-1.1086,-1.1086,0,-1.06,-1.0665,-1.0667,-1.0712,-1.0785,-1.0778,-1.0851,-1.0863,-1.0889,-1.0936,-1.0916,-1.0962,-1.0959,-1.1005,-1.1006,-1.1078,-1.1089,-1.1095,-1.1095,-1.1098,-1.1098,-1.1118,-1.1111,-1.109,-1.1089,-1.1089,-1.1088,0,-1.0722,-1.0726,-1.0804,-1.0829,-1.0837,-1.089,-1.0912,-1.0955,-1.0961,-1.1022,-1.1036,-1.1046,-1.1099,-1.1102,-1.1164,-1.1164,-1.1252,-1.1243,-1.1242,-1.1241,-1.1298,-1.1294,-1.148,-1.1505,-1.1339,-1.1341,-1.1342,0,-1.0805,-1.0855,-1.0885,-1.0915,-1.0933,-1.0982,-1.1011,-1.1006,-1.1038,-1.1077,-1.1115,-1.1166,-1.1206,-1.1292,-1.1305,-1.1352,-1.1345,-1.1406,-1.1352,-1.1354,-1.1348,-1.1346,-1.1351,-1.1418,-1.142,-1.1422,-1.1423,0,-1.0952,-1.0951,-1.0994,-1.1037,-1.1073,-1.1107,-1.1139,-1.1164,-1.1163,-1.1199,-1.1253,-1.1284,-1.1345,-1.1396,-1.1441,-1.1458,-1.1441,-1.1439,-1.1455,-1.1461,-1.1459,-1.1462,-1.1274,-1.1436,-1.1435,-1.1434,-1.1433,-1.1432,-1.1059,-1.1102,-1.113,-1.1179,-1.1201,-1.1231,-1.1273,-1.1283,-1.1327,-1.1377,-1.137,-1.143,-1.1459,-1.1518,-1.1538,-1.1584,-1.1564,-1.1586,-1.1592,-1.1599,-1.1606,-1.1449,-1.1592,-1.1592,-1.1592,-1.1591,-1.1591,0,-1.1207,-1.1223,-1.1267,-1.1312,-1.135,-1.1327,-1.1361,-1.1395,-1.1447,-1.1475,-1.1514,-1.1575,-1.1624,-1.164,-1.1687,-1.1721,-1.1715,-1.1734,-1.1733,-1.1738,-1.1621,-1.1603,-1.1739,-1.1739,-1.1739,-1.1739,-1.1739,-1.1739,-1.1288,-1.1361,-1.1362,-1.1445,-1.1461,-1.1518,-1.1539,-1.1567,-1.1589,-1.1658,-1.1697,-1.1707,-1.173,-1.1779,-1.1822,-1.1826,-1.1845,-1.1869,-1.1869,-1.176,-1.1746,-1.1732,-1.1715,-1.1872,-1.1872,-1.1982,-1.1983,-1.1984]},{"header":{"parameterUnit":"m.s-1","parameterCategory":1,"la1":30.2991,"la2":30.254,"lo1":-89.0895,"lo2":-89.0444,"dy":0.0017,"dx":0.0017,"nx":28,"ny":28,"refTime":"2023-03-17T21:00:00:Z","depth":0,"parameterNumber":3,"parameterNumberName":"V-component_of_WINDS"},"data":[0,0,0,0,0,0,0,0,0,0,0,0,0,0,0,0,0,0,0,0,0,0,0,0,0,0,0,0,0,0,0,0,0,0,0,0,0,0,0,0,0,0,0,0,0,0,0,0,0,0,0,0,0,0,0,0,0,0,-8.7249,-8.725,0,-8.7393,-8.7395,-8.7396,-8.7282,-8.7277,-8.7272,-8.7268,-8.7409,-8.7417,-8.7426,0,0,0,0,0,0,0,0,0,0,0,0,0,-8.6867,-8.6875,-8.7248,-8.725,-8.7252,-8.7393,-8.7395,-8.7397,-8.7283,-8.7277,-8.7271,-8.7265,-8.7407,-8.7416,-8.7426,0,0,0,0,0,0,0,0,0,0,0,0,0,-8.7024,-8.6877,-8.7248,-8.7212,-8.7211,-8.7392,-8.7395,-8.7397,-8.7284,-8.7277,-8.7269,-8.7263,-8.7403,-8.7415,-8.7428,-8.7651,0,0,-8.7466,-8.7471,0,0,0,0,0,0,0,0,-8.7015,-8.7038,-8.7216,-8.7215,-8.7213,-8.7312,-8.7312,-8.7482,-8.7286,-8.7256,-8.7267,-8.7259,-8.7383,-8.7396,-8.7439,-8.7657,-8.7663,-8.7467,-8.7475,-8.748,-8.7483,0,0,0,0,0,0,0,-8.7005,-8.7031,-8.7305,-8.7218,-8.7217,-8.7187,-8.7201,-8.7344,-8.7358,-8.7258,-8.725,-8.7269,-8.738,-8.7427,-8.7442,-8.7665,-8.7467,-8.7478,-8.7485,-8.749,-8.8073,-8.8081,0,0,0,0,0,0,-8.6998,-8.7023,-8.7301,-8.731,-8.7095,-8.72,-8.7216,-8.7288,-8.7356,-8.736,-8.7275,-8.7263,-8.741,-8.7427,-8.7446,-8.7712,-8.748,-8.7491,-8.7499,-8.8065,-8.8075,-8.8083,0,0,0,0,0,0,-8.6991,-8.7024,-8.7295,-8.7164,-8.7197,-8.7214,-8.7296,-8.7294,-8.7341,-8.7369,-8.7371,-8.7321,-8.7405,-8.7429,-8.7601,-8.7715,-8.7497,-8.7508,-8.8056,-8.8068,-8.8079,-8.8245,0,0,0,0,0,0,-8.698,-8.7022,-8.7109,-8.7167,-8.7204,-8.745,-8.7303,-8.7303,-8.7364,-8.735,-8.7413,-8.7416,-8.7401,-8.7583,-8.7614,-8.7728,-8.7518,-8.8045,-8.8061,-8.8075,-8.823,-8.8262,-8.8289,0,0,0,0,0,-8.6967,-8.7148,-8.7114,-8.7148,-8.7313,-8.7457,-8.7478,-8.7458,-8.7374,-8.746,-8.7478,-8.7414,-8.7698,-8.7602,-8.7635,-8.7755,-8.8038,-8.8057,-8.8074,-8.8217,-8.8255,-8.8288,0,0,0,0,0,0,-8.71,-8.7155,-8.7117,-8.7324,-8.7387,-8.7437,-8.7546,-8.75,-8.7586,-8.7569,-8.7539,-8.7554,-8.7736,-8.7762,-8.7654,-8.7974,-8.7854,-8.788,-8.7951,-8.7988,-8.8017,-8.8007,-8.7528,0,0,0,0,0,-8.7154,-8.7269,-8.7309,-8.7487,-8.7521,-8.7529,-8.759,-8.757,-8.7633,-8.7658,-8.7689,-8.7751,-8.7853,-8.7922,-8.8018,-8.8233,-8.8244,-8.8332,-8.8361,-8.8385,-8.8408,-8.8523,-8.8562,-8.8143,-8.8143,-8.8142,0,0,-8.7266,-8.731,-8.7383,-8.7515,-8.7562,-8.7679,-8.7551,-8.7681,-8.7767,-8.7677,-8.7843,-8.7867,-8.7934,-8.8129,-8.8216,-8.8157,-8.8526,-8.8408,-8.8427,-8.8437,-8.8546,-8.8585,-8.8621,-8.8155,-8.8153,-8.8151,0,0,-8.7529,-8.7575,-8.7728,-8.7778,-8.7851,-8.7854,-8.7891,-8.7949,-8.7963,-8.8129,-8.8064,-8.8164,-8.8342,-8.8393,-8.8442,-8.8725,-8.867,-8.8757,-8.8911,-8.9024,-8.9057,-8.9086,-8.9187,-8.9224,-8.8779,-8.8779,-8.878,0,-8.7658,-8.7835,-8.7812,-8.7948,-8.8007,-8.7933,-8.8087,-8.8135,-8.8235,-8.8277,-8.8209,-8.8431,-8.8471,-8.8677,-8.8746,-8.8788,-8.8828,-8.875,-8.9054,-8.9083,-8.911,-8.9206,-8.9244,-8.8789,-8.8788,-8.8787,-8.8786,0,-8.799,-8.8114,-8.8228,-8.8329,-8.8401,-8.8545,-8.8542,-8.8617,-8.8591,-8.8601,-8.877,-8.8815,-8.8919,-8.8966,-8.894,-8.9168,-8.9129,-8.9059,-8.8937,-8.9161,-8.9251,-8.9287,-8.8804,-8.88,-8.8797,-8.8795,0,0,-8.8343,-8.843,-8.8472,-8.8517,-8.8592,-8.8686,-8.8825,-8.893,-8.8995,-8.9065,-8.9181,-8.9333,-8.9269,-8.9325,-8.9303,-8.9402,-8.9624,-8.9319,-8.932,-8.9375,-8.9877,-8.9931,-8.9974,-8.9587,-8.9594,-8.9599,-8.9872,0,-8.861,-8.8857,-8.884,-8.9071,-8.9185,-8.9116,-8.9237,-8.9295,-8.9308,-8.9404,-8.9416,-8.9526,-8.9432,-8.9465,-8.956,-8.9577,-8.9724,-8.9557,-8.9693,-8.9698,-8.968,-9.0021,-9.0078,-9.0333,-8.9907,-8.9913,-8.9917,0,-8.8956,-8.9042,-8.9285,-8.9343,-8.939,-8.95,-8.9594,-8.9687,-8.9751,-8.9753,-8.9816,-8.9778,-8.9917,-8.9792,-8.9982,-8.9868,-8.9923,-8.9939,-8.9949,-8.9961,-8.9822,-9.0043,-9.0414,-9.0453,-8.9972,-8.9968,-8.9964,0,-8.919,-8.9366,-8.9534,-8.9574,-8.9646,-8.9725,-8.9758,-8.9814,-8.9878,-8.9959,-9.0,-9.0095,-9.0148,-9.0221,-9.0209,-9.012,-9.0403,-9.0277,-9.0408,-9.0409,-9.0472,-9.0468,-9.0857,-9.0506,-9.0505,-9.0505,-9.0504,0,-8.9492,-8.9643,-8.964,-8.9744,-8.9911,-8.9889,-9.0055,-9.0078,-9.0129,-9.0235,-9.0179,-9.0279,-9.0257,-9.0355,-9.0346,-9.0505,-9.0529,-9.0533,-9.0529,-9.0539,-9.0539,-9.0575,-9.0557,-9.0515,-9.0513,-9.0511,-9.0509,0,-8.9781,-8.9786,-8.9965,-9.0019,-9.0035,-9.0157,-9.0201,-9.0298,-9.0306,-9.044,-9.047,-9.0483,-9.0596,-9.0591,-9.0719,-9.0712,-9.0908,-9.0883,-9.0888,-9.0883,-9.1015,-9.1003,-9.1441,-9.1498,-9.1109,-9.1113,-9.1116,0,-8.9974,-9.009,-9.0156,-9.0224,-9.0263,-9.0373,-9.0438,-9.042,-9.049,-9.0571,-9.0658,-9.0767,-9.0853,-9.1036,-9.1055,-9.1152,-9.1129,-9.1276,-9.1143,-9.1149,-9.1132,-9.1126,-9.1137,-9.1302,-9.1307,-9.131,-9.1313,0,-9.0316,-9.0313,-9.041,-9.0509,-9.0589,-9.0665,-9.0735,-9.0793,-9.0782,-9.0863,-9.0979,-9.1046,-9.1177,-9.1286,-9.1378,-9.1409,-9.136,-9.1355,-9.139,-9.1402,-9.1401,-9.1404,-9.096,-9.1345,-9.1342,-9.1339,-9.1338,-9.1336,-9.0564,-9.0663,-9.0726,-9.0837,-9.0888,-9.0954,-9.1048,-9.1069,-9.1167,-9.1274,-9.1256,-9.1386,-9.1445,-9.1565,-9.1605,-9.1705,-9.1653,-9.1704,-9.1717,-9.173,-9.1746,-9.1384,-9.1722,-9.1721,-9.172,-9.1719,-9.1718,0,-9.0903,-9.094,-9.1042,-9.1143,-9.123,-9.1177,-9.1251,-9.1327,-9.1443,-9.1503,-9.159,-9.1723,-9.1827,-9.1855,-9.1955,-9.2029,-9.2009,-9.2056,-9.2051,-9.2059,-9.1787,-9.1746,-9.2071,-9.2071,-9.2071,-9.2071,-9.2071,-9.2071,-9.109,-9.1256,-9.126,-9.145,-9.1485,-9.1615,-9.1662,-9.1722,-9.177,-9.1923,-9.201,-9.2028,-9.2075,-9.2178,-9.227,-9.2275,-9.2315,-9.2372,-9.2368,-9.2113,-9.2078,-9.2044,-9.2006,-9.238,-9.2381,-9.2631,-9.2634,-9.2636]}]]